Aliceville Reservoir Weather Center

Moon Phase Calendar



Aliceville Reservoir Water Level
Online Cameras

 


      

Current Conditions in Nashville (historical)
8/8/2022 3:01:23 PM

92°F
Feels Like 92
Clouds
Humidity
35%
Pressure
30"
Wind
1.4 mph (NNW)
Dew Point
60°F
UV Index
3/10 (Moderate)
Visibility
6 mi

Hourly Forecast

Date & Time Mon, Aug 8
3:00 PM
Mon, Aug 8
4:00 PM
Mon, Aug 8
5:00 PM
Mon, Aug 8
6:00 PM
Mon, Aug 8
7:00 PM
Mon, Aug 8
8:00 PM
Mon, Aug 8
9:00 PM
Mon, Aug 8
10:00 PM
Mon, Aug 8
11:00 PM
Tue, Aug 9
12:00 AM
Tue, Aug 9
1:00 AM
Tue, Aug 9
2:00 AM
Tue, Aug 9
3:00 AM
Tue, Aug 9
4:00 AM
Tue, Aug 9
5:00 AM
Tue, Aug 9
6:00 AM
Tue, Aug 9
7:00 AM
Tue, Aug 9
8:00 AM
Tue, Aug 9
9:00 AM
Tue, Aug 9
10:00 AM
Tue, Aug 9
11:00 AM
Tue, Aug 9
12:00 PM
Tue, Aug 9
1:00 PM
Tue, Aug 9
2:00 PM
Tue, Aug 9
3:00 PM
Tue, Aug 9
4:00 PM
Tue, Aug 9
5:00 PM
Tue, Aug 9
6:00 PM
Tue, Aug 9
7:00 PM
Tue, Aug 9
8:00 PM
Tue, Aug 9
9:00 PM
Tue, Aug 9
10:00 PM
Tue, Aug 9
11:00 PM
Wed, Aug 10
12:00 AM
Wed, Aug 10
1:00 AM
Wed, Aug 10
2:00 AM
Wed, Aug 10
3:00 AM
Wed, Aug 10
4:00 AM
Wed, Aug 10
5:00 AM
Wed, Aug 10
6:00 AM
Wed, Aug 10
7:00 AM
Wed, Aug 10
8:00 AM
Wed, Aug 10
9:00 AM
Wed, Aug 10
10:00 AM
Wed, Aug 10
11:00 AM
Wed, Aug 10
12:00 PM
Wed, Aug 10
1:00 PM
Wed, Aug 10
2:00 PM
Condition
Clouds

Clouds

Clouds

Rain

Clouds

Rain

Rain

Clouds

Rain

Rain

Rain

Clouds

Clouds

Clouds

Clouds

Clouds

Clouds

Rain

Rain

Rain

Clouds

Clouds

Clouds

Clouds

Rain

Rain

Rain

Rain

Rain

Rain

Rain

Rain

Clouds

Clouds

Clouds

Clouds

Clouds

Clouds

Clouds

Clouds

Clouds

Clouds

Clouds

Clouds

Clouds

Rain

Rain

Clouds
Temperature 92°F92°F88°F82°F81°F73°F73°F73°F72°F72°F71°F71°F71°F70°F70°F70°F71°F74°F77°F80°F86°F91°F94°F96°F93°F79°F75°F72°F71°F70°F71°F71°F71°F71°F71°F71°F71°F71°F71°F71°F72°F75°F78°F82°F86°F87°F90°F87°F
Feels Like 92°F93°F90°F86°F85°F75°F74°F74°F73°F73°F72°F72°F72°F71°F71°F71°F73°F76°F79°F84°F92°F97°F100°F101°F98°F79°F77°F73°F72°F71°F72°F72°F73°F73°F73°F73°F73°F73°F72°F72°F74°F76°F79°F87°F91°F93°F95°F93°F
Cloudiness 99%99%99%100%100%100%56%59%57%52%54%100%100%99%100%100%100%100%100%99%99%99%99%99%99%100%100%100%100%100%100%100%100%100%98%92%96%97%98%98%98%98%99%99%99%99%99%100%
Visibility 6 mi6 mi6 mi6 mi6 mi3 mi6 mi6 mi6 mi6 mi6 mi6 mi6 mi6 mi6 mi6 mi6 mi6 mi6 mi6 mi6 mi6 mi6 mi6 mi6 mi3 mi3 mi6 mi6 mi6 mi6 mi6 mi6 mi6 mi6 mi6 mi6 mi6 mi6 mi6 mi6 mi6 mi6 mi6 mi6 mi5 mi6 mi6 mi
Precipitation 0%8%28%48%63%96%92%84%80%88%88%9%13%17%23%27%27%31%51%51%56%52%44%11%32%28%44%73%83%69%69%75%70%70%70%7%3%3%3%3%3%1%0%0%0%27%22%10%
Humidity 35%36%48%67%75%92%95%96%96%95%94%92%92%92%92%93%92%87%81%74%59%51%44%39%43%80%95%92%88%90%91%93%94%94%95%95%95%96%97%97%95%90%82%68%58%59%52%57%
Dew Point 60°F62°F66°F70°F72°F71°F71°F71°F71°F70°F69°F68°F68°F68°F68°F68°F69°F70°F71°F71°F71°F70°F69°F67°F68°F72°F73°F69°F67°F67°F68°F69°F69°F69°F70°F70°F70°F70°F70°F69°F70°F71°F72°F71°F70°F71°F70°F70°F
Pressure 30"30"30"30"30"30.03"30.03"30.03"30.06"30.03"30.06"30.03"30.03"30.06"30.06"30.06"30.09"30.09"30.09"30.12"30.09"30.06"30.06"30.03"30"30"30"30.03"30.03"30.06"30.06"30.09"30.09"30.09"30.09"30.09"30.09"30.09"30.09"30.09"30.12"30.12"30.15"30.15"30.15"30.12"30.09"30.06"
Wind Speed 1.4 mph4 mph5 mph6.2 mph8.2 mph12.1 mph6 mph4.1 mph4.7 mph3.9 mph2.9 mph1.4 mph2.1 mph2.3 mph2.4 mph2.8 mph3.4 mph3.4 mph4.3 mph4.4 mph4.6 mph4.2 mph3.6 mph3.2 mph6.1 mph7.2 mph10.8 mph8.4 mph2.2 mph4.4 mph2.5 mph3.1 mph0.7 mph1.7 mph2.9 mph2.7 mph2.9 mph3.7 mph3.8 mph3 mph2.3 mph2.9 mph3.9 mph4.4 mph4.5 mph4.1 mph0.3 mph3.6 mph
Wind
Direction
345°
NNW
299°
WNW
286°
WNW
159°
SSE
187°
S
204°
SSW
215°
SW
175°
S
154°
SSE
188°
S
218°
SW
184°
S
203°
SSW
210°
SSW
169°
S
168°
SSE
181°
S
174°
S
185°
S
202°
SSW
224°
SW
212°
SSW
190°
S
160°
SSE
209°
SSW
273°
W
322°
NW
346°
NNW
227°
SW
166°
SSE
161°
SSE
160°
SSE
235°
SW
224°
SW
209°
SSW
192°
SSW
173°
S
166°
SSE
171°
S
166°
SSE
168°
SSE
189°
S
188°
S
191°
S
190°
S
201°
SSW
24°
NNE
356°
N

Daily Forecast

Date High Low Precip. Humidity
Today
Aug 8

Rain
95 °F
72 °F
96%
38%
Tuesday
Aug 9

Rain
96 °F
70 °F
88%
51%
Wednesday
Aug 10

Rain
90 °F
71 °F
87%
52%
Thursday
Aug 11

Rain
94 °F
71 °F
79%
46%
Friday
Aug 12

Rain
98 °F
73 °F
70%
44%
Saturday
Aug 13

Clouds
94 °F
69 °F
0%
23%
Sunday
Aug 14

Clear
96 °F
68 °F
0%
37%
Monday
Aug 15

Clouds
85 °F
73 °F
0%
56%
Tuesday
Aug 16

Rain
74 °F
71 °F
99%
98%
Wednesday
Aug 17

Rain
84 °F
70 °F
100%
82%
Thursday
Aug 18

Clouds
86 °F
69 °F
15%
43%
Friday
Aug 19

Clear
87 °F
61 °F
0%
39%
Saturday
Aug 20

Clouds
91 °F
66 °F
0%
41%
Sunday
Aug 21

Clear
94 °F
69 °F
7%
32%
Monday
Aug 22

Clear
93 °F
68 °F
4%
43%
Tuesday
Aug 23

Clouds
89 °F
69 °F
1%
47%

Temperature 8-14 Day Outlook



Precipitation 8-14 Day Outlook




Quick Links
Aliceville Reservoir News
Aliceville Reservoir Photos
Aliceville Reservoir Videos




About Us
Contact Us
Site Map
Search Site
Advertise With Us
   
Aliceville.LakesOnline.com
THE ALICEVILLE RESERVOIR WEBSITE

Copyright 2022, Lakes Online
Privacy    |    Legal